YO8RXT-3 Weather Reports


time (UTC)temp
F
wind
direction
speed
knots
gust
knots
rain 1hr
in
rain 24hr
in
rain mn
in
humidity
%
barometer
mb
20260510050502 55 310 9.6 0.0 0.00 0.00 0.00 94 1015.0
20260510043502 55 320 13.0 0.0 0.00 0.00 0.00 94 1015.0
20260510040502 55 320 13.0 0.0 0.00 0.00 0.00 94 1015.0
20260510033502 55 320 12.2 0.0 0.00 0.00 0.00 94 1015.0
20260510030501 55 330 13.0 0.0 0.00 0.00 0.00 94 1014.0
20260510023503 55 320 12.2 0.0 0.00 0.00 0.00 94 1014.0
20260510020502 55 330 11.3 0.0 0.00 0.00 0.00 100 1014.0
20260510013503 55 330 11.3 0.0 0.00 0.00 0.00 100 1014.0
20260510010503 55 330 9.6 0.0 0.00 0.00 0.00 100 1015.0
20260510003502 55 320 7.8 0.0 0.00 0.00 0.00 100 1015.0
20260510000503 55 330 9.6 0.0 0.00 0.00 0.00 100 1015.0
20260509233502 57 320 9.6 0.0 0.00 0.00 0.00 94 1015.0
20260509230502 57 330 9.6 0.0 0.00 0.00 0.00 94 1015.0
20260509223503 57 330 9.6 0.0 0.00 0.00 0.00 94 1016.0
20260509220502 57 330 9.6 0.0 0.00 0.00 0.00 94 1016.0
20260509213502 57 320 7.0 0.0 0.00 0.00 0.00 94 1016.0
20260509210503 57 330 7.8 0.0 0.00 0.00 0.00 94 1016.0
20260509203502 57 320 5.2 0.0 0.00 0.00 0.00 94 1016.0
20260509200503 59 330 8.7 0.0 0.00 0.00 0.00 88 1016.0
20260509193503 59 330 8.7 0.0 0.00 0.00 0.00 88 1016.0
20260509190502 59 330 7.8 0.0 0.00 0.00 0.00 94 1016.0
20260509183502 59 320 6.1 0.0 0.00 0.00 0.00 94 1016.0
20260509180503 63 10 4.3 0.0 0.00 0.00 0.00 88 1015.0
20260509173503 63 20 5.2 0.0 0.00 0.00 0.00 83 1015.0
20260509170501 63 20 5.2 0.0 0.00 0.00 0.00 88 1015.0
20260509163503 64 30 6.1 0.0 0.00 0.00 0.00 83 1015.0
20260509160502 64 30 6.1 0.0 0.00 0.00 0.00 83 1015.0
20260509153502 64 20 6.1 0.0 0.00 0.00 0.00 78 1015.0
20260509150502 64 20 5.2 0.0 0.00 0.00 0.00 78
20260509143502 64 40 5.2 0.0 0.00 0.00 0.00 78 1015.0
20260509140502 66 40 6.1 0.0 0.00 0.00 0.00 73 1015.0
20260509133502 64 40 6.1 0.0 0.00 0.00 0.00 78 1015.0
20260509130502 64 50 6.1 0.0 0.00 0.00 0.00 78 1016.0
20260509123502 64 80 7.8 0.0 0.00 0.00 0.00 78 1016.0
20260509120502 64 70 6.1 0.0 0.00 0.00 0.00 78 1016.0
20260509113502 64 80 7.0 0.0 0.00 0.00 0.00 78 1016.0
20260509110503 63 100 8.7 0.0 0.00 0.00 0.00 83 1016.0
20260509103502 63 100 7.0 0.0 0.00 0.00 0.00 83 1016.0
20260509100502 63 80 7.0 0.0 0.00 0.00 0.00 83 1017.0
20260509093503 63 70 5.2 0.0 0.00 0.00 0.00 83 1017.0
20260509090502 63 50 6.1 0.0 0.00 0.00 0.00 83 1017.0
20260509083503 63 30 7.8 0.0 0.00 0.00 0.00 88
20260509080502 61 30 7.8 0.0 0.00 0.00 0.00 94 1017.0
20260509073503 61 30 7.8 0.0 0.00 0.00 0.00 94 1017.0
20260509070502 59 20 7.0 0.0 0.00 0.00 0.00
20260509063502 57 290 2.6 0.0 0.00 0.00 0.00 100 1017.0
20260509060502 57 310 4.3 0.0 0.00 0.00 0.00 94 1017.0
20260509053503 57 330 4.3 0.0 0.00 0.00 0.00 94 1017.0